Location: Catstown
(52.4386°N, 7.2633°W)
Time: 01:30:04
(UTC+00:00)

Cosmos 1655 Rocket - Pass Details

Date: 18 September 2020
Orbit: 971 x 1005 km, 82.9° (Epoch: 30 October)

Event Time Altitude Azimuth Distance (km) Brightness Sun altitude
Rises 21:02:46 0° 351° (N) 3,686 7.7 -21.8°
Reaches altitude 10° 21:05:23 10° 357° (N) 2,737 6.8 -22.1°
Maximum altitude 21:11:27 49° 72° (ENE) 1,252 4.3 -22.9°
Enters shadow 21:12:33 44° 102° (ESE) 1,328 4.3 -23.0°
